TimeEST,TemperatureF,Dew PointF,Humidity,Sea Level PressureIn,VisibilityMPH,Wind Direction,Wind SpeedMPH,Gust SpeedMPH,PrecipitationIn,Events,Conditions,WindDirDegrees,DateUTC
12:37 AM,46.4,42.8,87,30.32,10.0,NNE,15.0,23.0,N/A,,Overcast,30,2012-11-14 05:37:00
12:53 AM,46.0,42.1,86,30.33,10.0,NE,16.1,25.3,0.00,Rain,Light Rain,40,2012-11-14 05:53:00
1:53 AM,46.0,42.1,86,30.33,10.0,NNE,10.4,-,0.00,,Overcast,30,2012-11-14 06:53:00
2:53 AM,46.0,41.0,83,30.31,10.0,NNE,17.3,25.3,N/A,,Overcast,30,2012-11-14 07:53:00
3:02 AM,46.4,41.0,81,30.31,10.0,NNE,16.1,23.0,N/A,,Overcast,30,2012-11-14 08:02:00
3:53 AM,46.0,39.9,79,30.31,10.0,NE,17.3,23.0,N/A,,Overcast,40,2012-11-14 08:53:00
4:53 AM,46.0,39.0,76,30.32,10.0,NNE,16.1,21.9,N/A,,Overcast,30,2012-11-14 09:53:00
5:53 AM,46.0,39.9,79,30.34,10.0,NNE,12.7,19.6,N/A,,Overcast,30,2012-11-14 10:53:00
6:48 AM,46.4,39.2,76,30.35,10.0,NNE,13.8,21.9,N/A,,Overcast,30,2012-11-14 11:48:00
6:53 AM,46.0,39.9,79,30.35,10.0,NNE,10.4,21.9,N/A,,Overcast,30,2012-11-14 11:53:00
7:53 AM,46.0,41.0,83,30.37,8.0,NNE,9.2,-,N/A,,Overcast,20,2012-11-14 12:53:00
8:53 AM,46.9,41.0,80,30.38,9.0,NNE,13.8,19.6,N/A,,Overcast,30,2012-11-14 13:53:00
9:53 AM,48.9,41.0,74,30.38,7.0,NNE,11.5,17.3,N/A,,Overcast,30,2012-11-14 14:53:00
10:00 AM,48.2,41.0,76,30.38,10.0,NNE,16.1,20.7,N/A,,Overcast,30,2012-11-14 15:00:00
10:53 AM,52.0,42.1,69,30.37,10.0,NE,13.8,20.7,N/A,,Overcast,40,2012-11-14 15:53:00
11:00 AM,51.8,42.8,71,30.38,10.0,NNE,11.5,-,N/A,,Overcast,30,2012-11-14 16:00:00
11:53 AM,51.1,42.1,71,30.36,10.0,NNE,11.5,17.3,N/A,,Overcast,30,2012-11-14 16:53:00
12:53 PM,53.1,43.0,69,30.34,10.0,North,11.5,16.1,N/A,,Overcast,360,2012-11-14 17:53:00
1:53 PM,54.0,43.0,66,30.31,10.0,North,6.9,18.4,N/A,,Overcast,10,2012-11-14 18:53:00
2:53 PM,53.1,42.1,66,30.31,10.0,North,10.4,-,N/A,,Overcast,10,2012-11-14 19:53:00
3:53 PM,53.1,42.1,66,30.30,10.0,NNE,10.4,20.7,N/A,,Overcast,30,2012-11-14 20:53:00
4:53 PM,51.1,41.0,68,30.31,10.0,NNE,12.7,19.6,N/A,,Overcast,20,2012-11-14 21:53:00
5:53 PM,51.1,42.1,71,30.31,10.0,NNE,9.2,-,N/A,,Overcast,20,2012-11-14 22:53:00
6:53 PM,50.0,43.0,77,30.31,10.0,NNE,12.7,-,N/A,,Overcast,30,2012-11-14 23:53:00
7:53 PM,50.0,43.0,77,30.32,10.0,NE,10.4,19.6,N/A,,Overcast,40,2012-11-15 00:53:00
8:53 PM,48.9,42.1,77,30.32,10.0,NE,11.5,19.6,N/A,,Overcast,40,2012-11-15 01:53:00
9:53 PM,48.9,42.1,77,30.32,10.0,NE,9.2,-,N/A,,Overcast,50,2012-11-15 02:53:00
10:53 PM,48.9,42.1,77,30.31,10.0,NNE,11.5,-,N/A,,Overcast,30,2012-11-15 03:53:00
11:53 PM,48.9,42.1,77,30.30,10.0,NNE,11.5,16.1,N/A,,Overcast,30,2012-11-15 04:53:00